This demonstration page uses our WeatherBlox Daily Observations layout. Learn more.

Left ArrowRight Arrow

Hourly Observations for May 22, 2017

Temp ( °F °C ) Dew Point ( °F °C ) Humidity (%) Winds ( mph kmh ) Pressure ( in mb ) Visibility ( mi km ) Precip ( " mm )
12:15 am 00:15 Cloudy 59 15 43 6 55 55 SW 9 15 30.06 1018 10 16 0.00 0.00
12:35 am 00:35 Cloudy 61 16 41 5 48 48 WSW 13 20 30.06 1018 10 16 0.00 0.00
12:55 am 00:55 Cloudy 59 15 45 7 59 59 WSW 6 9 30.06 1018 10 16 0.00 0.00
1:15 am 01:15 Cloudy 59 15 45 7 59 59 W 7 11 30.06 1018 10 16 0.00 0.00
1:35 am 01:35 Cloudy 59 15 43 6 55 55 WSW 9 15 30.06 1018 10 16 0.00 0.00
1:55 am 01:55 Cloudy 61 16 45 7 55 55 WSW 9 15 30.06 1018 10 16 0.00 0.00
2:15 am 02:15 Cloudy 59 15 45 7 59 59 WSW 9 15 30.06 1018 10 16 0.00 0.00
2:35 am 02:35 Cloudy 57 14 45 7 63 63 W 9 15 30.06 1018 10 16 0.00 0.00
2:55 am 02:55 Mostly Cloudy 57 14 45 7 63 63 WSW 8 13 30.06 1018 10 16 0.00 0.00
3:15 am 03:15 Mostly Clear 57 14 45 7 63 63 WSW 9 15 30.03 1017 10 16 0.00 0.00
3:35 am 03:35 Mostly Cloudy 57 14 45 7 63 63 WSW 12 19 30.03 1017 10 16 0.00 0.00
3:55 am 03:55 Mostly Cloudy 57 14 45 7 63 63 WSW 13 20 30.03 1017 10 16 0.00 0.00
4:15 am 04:15 Mostly Cloudy 59 15 43 6 55 55 W 13 20 30.03 1017 10 16 0.00 0.00
4:35 am 04:35 Partly Cloudy 57 14 45 7 63 63 W 10 17 30.03 1017 10 16 0.00 0.00
4:55 am 04:55 Mostly Clear 55 13 45 7 67 67 W 9 15 30.03 1017 10 16 0.00 0.00
5:15 am 05:15 Partly Cloudy 55 13 45 7 67 67 W 9 15 30.03 1017 10 16 0.00 0.00
5:35 am 05:35 Mostly Clear 55 13 45 7 67 67 W 9 15 30.03 1017 10 16 0.00 0.00
5:55 am 05:55 Clear 54 12 45 7 72 72 W 7 11 30.06 1018 10 16 0.00 0.00
6:15 am 06:15 Sunny 54 12 45 7 72 72 W 8 13 30.06 1018 10 16 0.00 0.00
6:35 am 06:35 Sunny 54 12 45 7 72 72 WNW 8 13 30.03 1017 10 16 0.00 0.00
6:55 am 06:55 Sunny 54 12 45 7 72 72 W 8 13 30.03 1017 10 16 0.00 0.00
7:15 am 07:15 Sunny 54 12 45 7 72 72 W 6 9 30.03 1017 10 16 0.00 0.00
7:35 am 07:35 Sunny 54 12 46 8 77 77 W 3 6 30.03 1017 10 16 0.00 0.00
7:55 am 07:55 Sunny 55 13 45 7 67 67 W 8 13 30.00 1016 10 16 0.00 0.00
8:15 am 08:15 Sunny 57 14 45 7 63 63 W 8 13 30.00 1016 10 16 0.00 0.00
8:35 am 08:35 Sunny 57 14 45 7 63 63 WNW 8 13 30.00 1016 10 16 0.00 0.00
8:55 am 08:55 Sunny 59 15 45 7 59 59 NW 12 19 30.00 1016 10 16 0.00 0.00
9:15 am 09:15 Sunny 59 15 43 6 55 55 WNW 9 15 30.00 1016 10 16 0.00 0.00
9:35 am 09:35 Sunny 61 16 45 7 55 55 WNW 9 15 29.97 1015 10 16 0.00 0.00
9:55 am 09:55 Sunny 61 16 43 6 52 52 WNW 8 13 29.97 1015 10 16 0.00 0.00
10:15 am 10:15 Sunny 63 17 43 6 49 49 WNW 10 17 29.94 1014 10 16 0.00 0.00
10:35 am 10:35 Sunny 63 17 45 7 52 52 NW 8 13 29.94 1014 10 16 0.00 0.00
10:55 am 10:55 Sunny 64 18 45 7 49 49 NW 10 17 29.94 1014 10 16 0.00 0.00
11:15 am 11:15 Sunny 66 19 43 6 43 43 WNW 14 22 29.94 1014 10 16 0.00 0.00
11:35 am 11:35 Sunny 66 19 43 6 43 43 NW 12 19 29.94 1014 10 16 0.00 0.00
11:55 am 11:55 Sunny 66 19 43 6 43 43 WNW 10 17 29.94 1014 10 16 0.00 0.00
12:15 pm 12:15 Sunny 70 21 43 6 38 38 W 10 17 29.91 1013 10 16 0.00 0.00
12:35 pm 12:35 Sunny 70 21 43 6 38 38 NW 12 19 29.88 1012 10 16 0.00 0.00
12:55 pm 12:55 Sunny 72 22 43 6 36 36 W 7 11 29.88 1012 10 16 0.00 0.00
1:15 pm 13:15 Sunny 72 22 43 6 36 36 WNW 7 11 29.88 1012 10 16 0.00 0.00
1:35 pm 13:35 Sunny 72 22 39 4 31 31 NNW 7 11 29.85 1011 10 16 0.00 0.00
1:55 pm 13:55 Sunny 72 22 43 6 36 36 W 10 17 29.85 1011 10 16 0.00 0.00
2:15 pm 14:15 Mostly Cloudy 72 22 45 7 38 38 W 7 11 29.85 1011 10 16 0.00 0.00
2:35 pm 14:35 Mostly Cloudy with Nearby Thunderstorms 73 23 45 7 36 36 W 9 15 29.83 1010 10 16 0.00 0.00
2:55 pm 14:55 Mostly Cloudy 70 21 43 6 38 38 W 12 19 29.83 1010 10 16 0.00 0.00
3:15 pm 15:15 Cloudy with Thunderstorms 64 18 50 10 60 60 SW 12 19 29.85 1011 10 16 0.01 0.25
3:35 pm 15:35 Mostly Cloudy with Nearby Thunderstorms 70 21 46 8 43 43 WNW 8 13 29.83 1010 10 16 0.01 0.25
3:55 pm 15:55 Mostly Cloudy with Nearby Thunderstorms 72 22 46 8 41 41 NNW 24 39 29.83 1010 10 16 0.01 0.25
4:15 pm 16:15 Mostly Sunny 70 21 46 8 43 43 N 17 28 29.83 1010 10 16 0.00 0.00
4:35 pm 16:35 Mostly Sunny 70 21 43 6 38 38 N 15 24 29.83 1010 10 16 0.00 0.00
4:55 pm 16:55 Mostly Cloudy 68 20 46 8 46 46 N 16 26 29.83 1010 10 16 0.00 0.00
5:15 pm 17:15 Mostly Cloudy 68 20 46 8 46 46 N 15 24 29.83 1010 10 16 0.00 0.00
5:35 pm 17:35 Mostly Sunny 68 20 46 8 46 46 N 13 20 29.83 1010 10 16 0.00 0.00
5:55 pm 17:55 Sunny 70 21 46 8 43 43 N 18 30 29.83 1010 10 16 0.00 0.00
6:15 pm 18:15 Sunny 66 19 45 7 46 46 N 14 22 29.83 1010 10 16 0.00 0.00
6:35 pm 18:35 Mostly Sunny 70 21 45 7 40 40 NNW 17 28 29.83 1010 10 16 0.00 0.00
6:55 pm 18:55 Sunny 68 20 43 6 40 40 NNW 10 17 29.83 1010 10 16 0.00 0.00
7:15 pm 19:15 Sunny 68 20 39 4 35 35 NNW 17 28 29.83 1010 10 16 0.00 0.00
7:35 pm 19:35 Sunny 66 19 39 4 37 37 N 17 28 29.83 1010 10 16 0.00 0.00
7:55 pm 19:55 Sunny 61 16 41 5 48 48 N 17 28 29.88 1012 10 16 0.00 0.00
8:15 pm 20:15 Sunny 59 15 43 6 55 55 N 9 15 29.88 1012 10 16 0.00 0.00
8:35 pm 20:35 Sunny 57 14 43 6 59 59 N 12 19 29.91 1013 10 16 0.00 0.00
8:55 pm 20:55 Mostly Cloudy 59 15 41 5 51 51 N 12 19 29.88 1012 10 16 0.00 0.00
9:15 pm 21:15 Cloudy 59 15 39 4 48 48 NNW 12 19 29.94 1014 10 16 0.00 0.00
9:35 pm 21:35 Cloudy 59 15 41 5 51 51 NW 10 17 29.94 1014 10 16 0.00 0.00
9:55 pm 21:55 Cloudy 59 15 43 6 55 55 WNW 9 15 29.97 1015 10 16 0.00 0.00
10:15 pm 22:15 Cloudy 55 13 46 8 72 72 NW 18 30 29.97 1015 10 16 0.02 0.51
10:35 pm 22:35 Cloudy 55 13 46 8 72 72 NNW 17 28 30.00 1016 10 16 0.05 1.27
10:55 pm 22:55 Cloudy 54 12 48 9 82 82 NNW 16 26 30.03 1017 10 16 0.06 1.52
11:15 pm 23:15 Cloudy 52 11 45 7 77 77 WNW 12 19 30.03 1017 10 16 0.02 0.51
11:35 pm 23:35 Cloudy 52 11 46 8 82 82 NW 10 17 30.03 1017 10 16 0.03 0.76
11:55 pm 23:55 Cloudy 54 12 46 8 77 77 NW 12 19 30.03 1017 10 16 0.03 0.76

Powered by AerisWeather